Skip Page Navigation
NASA JPL Caltech
NASA Logo - Jet Propulsion Laboratory + View the NASA Portal
+ Center for Near-Earth Object Studies
JPL Home Earth Solar System Stars & Galaxies Technology
JPL Solar System Dynamics
BODIES ORBITS EPHEMERIDES TOOLS PHYSICAL DATA DISCOVERY FAQ SITE MAP
JPL Small-Body Database Browser
Search: [ help ]  
103243 (2000 AV3)
Classification: Main-belt Asteroid          SPK-ID: 2103243
Ephemeris | Orbit Diagram | Orbital Elements | Mission Design | Physical Parameters | Discovery Circumstances ]

[ show orbit diagram ]
Orbital Elements at Epoch 2459200.5 (2020-Dec-17.0) TDB
Reference: JPL 15 (heliocentric ecliptic J2000)
 Element Value Uncertainty (1-sigma)   Units 
e .3378037888727661 6.6872e-08  
a 2.575475797410251 1.5684e-08 au
q 1.70547031489496 1.6609e-07 au
i 22.07483393944482 1.0655e-05 deg
node 284.2048371105412 1.3134e-05 deg
peri 79.30018733931135 2.2624e-05 deg
M 53.46619693161949 1.8327e-05 deg
tp 2458976.286669743398
(2020-May-06.78666974)
7.5436e-05 TDB
period 1509.679078083844
4.13
1.3791e-05
3.776e-08
d
yr
n .2384612764568011 2.1783e-09 deg/d
Q 3.445481279925542 2.0983e-08 au
  Orbit Determination Parameters
   # obs. used (total)      795  
   data-arc span      7784 days (21.31 yr)  
   first obs. used      1999-09-28  
   last obs. used      2021-01-19  
   planetary ephem.      DE431  
   SB-pert. ephem.      SB431-N16  
   condition code      0  
   norm. resid. RMS      .48272  
   source      ORB  
   producer      Otto Matic  
   solution date      2021-Feb-24 08:33:50  

Additional Information
 Earth MOID = .84196 au 
 Jupiter MOID = 2.50053 au 
 T_jup = 3.248 
[ show covariance matrix ]

Ephemeris | Orbit Diagram | Orbital Elements | Mission Design | Physical Parameters | Discovery Circumstances ]

Physical Parameter Table
Parameter Symbol Value Units Sigma Reference Notes
absolute magnitude H 14.62   n/a E2021B55  
diameter diameter 5.597 km 0.258 urn:nasa:pds:neowise_diameters_albedos::2.0[mainbelt] (http://adsabs.harvard.edu/abs/2011ApJ...741...68M)  
geometric albedo albedo 0.098   0.019 urn:nasa:pds:neowise_diameters_albedos::2.0[mainbelt] (http://adsabs.harvard.edu/abs/2011ApJ...741...68M)  

103243 (2000 AV3)          Discovered 2000-Jan-03 by LINEAR at Socorro
Reference: 20051019/Numbers.arcLast Updated: 2005-10-26
Ephemeris | Orbit Diagram | Orbital Elements | Mission Design | Physical Parameters | Discovery Circumstances ]
ABOUT SSD CREDITS/AWARDS PRIVACY/COPYRIGHT GLOSSARY LINKS
FirstGov 2021-Mar-04 22:24 UT
(server date/time)  
NASA Home Page
Site Manager:   Ryan S. Park
Webmaster  Alan B. Chamberlin